EcAMSat (43019 NORAD) Tracking and Keplerian Element Data

This shows tracking and keplerian element data for the satellite.

Feedback or suggestion? Click here.




ElementValue
Catalog43019
NameEcAMSat
Epoch Orbit30575
Epoch Day266.7165031
Epoch Year2021
RAAN73.1755
Inclination51.6372
Eccentricity0.0002172
Argument of Perigee305.7676
Mean Anonmoly54.3127
Mean Motion15.88020253
Decay Rate0.00092372
L11 43019U 98067NG 21266.71650310 .00092372 00000-0 33111-3 0 9992
L22 43019 51.6372 73.1755 0002172 305.7676 54.3127 15.88020253305753

Live tracking and technical data element details for EcAMSat (NORAD 43019). EcAMSat can be tracked NOW for your location showing map with azimuth and elevation plus other details from your city location.

Track the satellite on the map from your city or location and see movement details for azimuth, elevation, latitude, longitude, range, height, and movement on the map or in text.







IsCatalogInMostPopularTable: catalog: 43019, numindb: 568
Update: records affected: 1



GetName: 43019 EcAMSat

Hit Count: updated at: Mon, 27 Sep 2021 00:13:25 GMT